Temperature
13 13 14 14 14 14 14 14 14 14 14 14 14 14 14 14 14 14 14 14 14 14 13 13 13 13 13 13 13 13 13 13 13 13 13 13 13 13 13 12 12 12 12
12 13 13 13 13 13 13 13 14 14 14 14 14 14 14 14 14 14 14 13 14 13 13 13 13 13 13 13 13 13 13 13 13 13 13 13 13 12 12 12 12 12 12
12 12 12 12 13 13 13 13 13 13 13 13 14 14 14 14 14 14 13 13 13 13 13 13 13 13 13 13 13 13 13 13 13 13 13 12 12 12 12 12 12 12 12
11 11 11 12 12 12 12 12 13 13 13 13 13 13 13 13 13 13 13 13 13 13 13 13 13 12 12 12 13 13 13 13 13 12 12 12 12 12 12 12 12 11 11
11 11 11 11 11 11 12 12 12 12 12 12 13 13 13 13 13 13 13 13 13 13 13 13 13 12 12 12 12 12 12 12 12 12 12 12 12 12 11 11 11 11 11
10 10 10 10 11 11 11 11 11 11 12 12 12 12 12 12 12 12 13 13 13 13 13 12 12 12 12 12 12 12 12 12 12 12 12 12 11 11 11 11 11 11 11
9 9 10 10 10 10 10 10 11 11 11 11 11 11 12 12 12 12 12 12 12 12 12 12 12 12 12 12 11 11 11 12 12 11 11 11 11 11 11 10 10 10 10
9 9 9 9 9 9 10 10 10 10 10 11 10 10 10 11 11 12 12 12 12 12 12 12 12 12 11 11 11 11 11 11 11 11 11 11 10 10 10 10 10 10 10
8 8 8 8 9 9 9 9 9 9 10 10 10 10 10 10 10 10 11 11 11 11 11 11 11 11 11 11 11 11 11 11 10 10 10 10 10 10 10 10 9 9 9
7 7 8 8 8 8 8 9 9 9 9 9 9 9 9 9 9 9 10 10 10 10 10 10 10 10 10 10 10 10 10 10 10 10 10 10 10 10 9 9 9 9 9
7 7 7 7 7 8 8 8 8 8 8 8 8 9 9 9 9 8 8 9 9 9 9 9 10 10 10 10 10 10 10 10 10 9 9 9 9 9 9 9 8 8 8
6 7 7 7 7 7 7 7 7 8 8 8 8 8 8 8 8 8 8 8 8 9 9 9 9 9 9 9 9 9 9 9 9 9 9 9 9 9 9 8 8 8 8
6 6 6 6 6 6 7 7 7 7 7 7 7 7 7 7 7 7 7 7 7 8 8 8 8 8 8 8 8 9 9 8 8 8 8 8 8 8 8 8 8 7 7
5 5 6 6 6 6 6 6 6 6 6 6 6 6 6 6 6 6 6 6 6 6 7 7 7 7 7 7 8 8 8 8 8 8 8 8 7 7 7 7 7 7 7
5 5 5 5 5 5 5 5 5 6 6 6 6 6 6 6 6 6 6 6 5 5 5 6 6 7 7 7 7 7 7 7 7 7 7 7 7 7 7 7 6 6 6
4 4 5 5 5 5 5 5 5 5 5 5 5 5 5 5 5 5 5 5 5 5 4 5 6 6 6 6 6 6 6 7 7 7 7 6 6 6 6 6 6 6 6
4 4 4 4 5 5 5 5 5 5 5 5 5 4 4 4 4 4 4 4 4 4 4 5 5 5 5 5 6 6 6 6 6 6 6 6 6 6 6 5 5 5 5
4 4 4 4 4 4 4 4 4 4 4 4 4 4 4 3 3 4 4 4 4 4 3 4 4 4 4 5 5 5 5 5 5 6 6 6 5 5 5 5 5 5 5
3 3 3 3 3 3 3 3 3 3 3 3 3 3 3 3 3 3 3 3 3 3 3 3 3 4 4 4 4 4 4 5 5 5 5 5 5 5 5 5 5 5 4
3 3 3 3 3 3 3 3 3 3 3 3 3 3 3 3 3 3 3 2 2 2 2 2 2 3 3 3 3 3 4 4 4 4 4 4 4 4 4 4 4 4 4
3 3 3 3 2 2 2 2 2 2 2 2 2 2 2 2 2 2 2 2 2 2 2 2 2 2 2 2 2 2 2 3 3 3 3 4 3 4 4 4 4 4 4
2 2 2 2 2 2 2 2 1 2 2 2 2 2 2 2 1 1 1 1 1 1 1 1 1 1 1 1 1 1 1 1 1 2 2 3 2 3 3 3 3 3 3
2 2 2 2 2 2 1 1 1 1 1 1 1 1 1 1 1 1 1 1 1 1 1 1 1 1 1 1 1 1 1 0 1 1 1 1 2 2 2 2 2 2 2
1 1 1 1 1 1 1 1 1 0 0 0 0 0 1 1 1 1 1 1 1 1 0 0 0 0 1 0 0 0 -0 -0 0 1 0 0 1 1 1 2 2 2 2
1 1 1 1 0 0 0 0 -0 -0 -0 -0 -0 -0 -0 -0 0 0 0 0 0 0 0 0 0 0 0 0 -0 -0 -0 -1 -1 -0 -0 -1 -0 0 1 1 1 1 1
0 0 0 -0 -0 -0 -0 -1 -1 -1 -1 -0 -0 -1 -1 -1 -1 -1 -1 -1 -1 -1 -0 -0 -0 0 -0 -0 -0 -1 -1 -1 -2 -2 -1 -1 -1 -1 -1 0 0 1 1
Wind_Speed
2 2 2 2 3 4 3 3 4 5 5 5 6 6 7 8 9 9 10 12 13 14 14 14 13 13 13 12 11 10 9 8 8 8 8 7 7 7 8 8 8 8 8
3 3 3 3 3 4 4 4 5 5 5 4 5 6 7 8 8 9 10 11 13 14 15 15 15 14 13 13 11 11 10 9 9 9 8 8 8 8 9 9 9 9 9
3 3 3 3 3 4 4 4 4 4 4 5 6 6 5 7 7 9 10 10 11 14 15 15 15 14 14 13 12 11 11 10 10 10 9 9 9 9 10 10 11 11 11
3 3 3 3 4 4 3 4 4 4 5 5 5 5 5 5 7 8 9 9 10 10 12 14 14 14 14 13 13 12 12 12 12 11 11 11 11 11 11 11 11 12 12
3 2 3 3 3 3 3 4 4 4 5 5 6 5 5 5 6 6 7 8 9 9 10 11 13 13 13 13 13 13 13 12 12 13 13 13 13 13 13 13 13 13 13
3 2 2 2 2 2 3 3 4 4 4 4 5 5 5 6 5 6 7 6 7 9 9 9 9 9 10 11 12 13 12 12 12 13 13 14 14 14 14 14 14 14 14
3 2 2 2 2 3 3 4 4 4 4 3 3 3 3 5 6 6 5 5 5 7 7 8 8 7 7 8 9 10 11 11 11 12 12 13 14 14 15 15 15 15 16
3 2 2 2 2 2 3 3 3 3 3 3 3 2 2 3 4 5 5 6 6 4 5 6 7 6 6 6 6 8 9 11 12 12 11 12 13 14 14 14 15 15 15
3 2 2 2 2 2 3 3 3 4 4 3 3 3 3 4 1 2 4 4 5 4 5 4 5 6 7 6 5 6 8 9 12 13 13 12 13 14 14 15 15 14 14
3 3 2 2 2 2 3 3 3 3 4 4 3 3 2 2 2 2 2 3 4 4 5 4 4 5 5 5 6 6 8 10 12 14 14 14 14 14 14 13 14 14 14
3 3 2 2 2 2 3 3 2 3 3 4 4 2 2 2 2 3 4 3 3 3 4 4 4 4 5 5 6 7 9 10 13 14 15 15 15 15 14 14 14 15 15
3 3 3 2 2 3 3 3 3 3 3 4 4 3 3 3 3 3 4 4 4 3 3 3 4 4 4 5 7 8 9 11 13 14 15 15 14 14 15 14 15 15 15
3 4 3 3 3 3 3 3 3 3 3 4 4 4 3 4 3 3 4 4 4 3 2 3 4 4 4 6 7 8 9 11 12 13 15 15 14 14 14 15 15 15 15
4 4 3 3 3 3 3 3 3 4 3 4 4 4 3 4 3 3 3 3 4 4 3 4 3 4 4 5 7 8 9 10 11 12 13 14 13 14 14 14 15 15 15
4 3 3 3 3 3 3 3 3 3 3 3 3 4 3 3 3 3 3 3 4 5 6 4 3 3 4 6 7 7 8 9 10 11 12 12 12 13 13 14 14 14 14
4 4 4 3 3 3 3 3 3 3 3 3 3 3 3 3 3 3 3 3 4 5 6 4 3 3 5 5 7 7 9 9 10 12 12 11 12 13 13 14 13 14 14
4 4 3 3 3 3 3 2 3 3 3 3 3 3 4 3 3 3 3 3 4 4 7 5 4 4 4 5 6 6 8 8 9 11 11 12 12 13 13 13 13 13 14
4 3 3 3 3 3 3 3 3 3 3 4 4 4 4 3 3 3 3 4 4 4 5 7 5 4 5 5 5 6 6 7 7 10 11 12 12 13 13 13 12 13 13
4 4 3 3 3 3 3 3 3 3 3 3 4 4 5 4 4 4 4 4 4 4 4 5 6 5 4 4 4 6 6 5 6 9 10 11 11 12 13 12 12 13 13
4 4 4 3 3 3 3 3 2 3 3 3 4 4 5 5 6 5 4 5 4 4 4 5 5 5 4 4 3 5 6 4 5 6 8 9 10 11 12 12 12 12 12
4 4 4 4 3 3 3 3 2 2 2 3 3 4 5 5 6 5 5 4 5 5 4 5 5 5 5 4 4 4 7 6 6 5 5 6 6 6 7 10 11 11 12
4 4 4 4 4 3 4 4 3 2 2 3 3 4 4 5 6 6 7 7 7 7 6 6 6 6 6 5 4 5 6 6 6 3 4 7 5 7 6 6 10 12 12
4 5 5 4 4 5 6 6 5 3 2 3 3 3 3 4 5 5 6 7 8 9 9 7 8 8 7 6 6 6 6 7 7 6 6 8 5 7 6 8 12 12 12
4 4 5 5 4 5 8 7 6 4 3 3 4 4 4 4 5 5 4 5 5 6 7 6 7 7 7 6 6 6 6 6 6 5 4 6 6 6 7 7 11 12 12
3 3 4 4 5 6 8 8 6 2 3 4 4 4 4 4 6 7 4 4 5 5 6 6 7 7 7 7 6 4 4 4 6 5 3 4 5 6 6 6 8 11 11
3 4 4 4 4 5 8 8 7 2 3 3 4 4 6 6 7 7 4 4 5 5 4 5 5 6 5 5 5 4 4 5 5 5 3 2 4 4 4 4 4 6 8
Wind_Direction
251 250 249 241 243 240 224 222 222 223 222 219 215 216 216 215 215 215 221 223 224 228 232 231 230 230 227 226 223 222 223 226 232 238 244 249 253 259 264 269 275 274 276
252 248 246 243 242 238 234 228 227 225 226 223 224 225 226 222 220 219 222 226 227 228 233 234 232 231 230 227 223 223 224 228 234 239 246 252 254 260 265 268 272 274 273
255 247 245 246 244 238 236 234 232 228 227 226 231 231 230 225 222 222 224 227 229 228 228 232 232 230 230 227 227 229 230 231 234 239 246 251 254 259 264 268 272 273 272
272 258 245 246 249 240 230 231 226 229 232 228 232 234 230 227 227 225 223 223 222 222 225 229 232 231 231 231 234 236 235 236 237 241 245 250 253 259 262 265 269 271 272
295 280 259 258 249 238 235 237 235 224 234 233 231 232 230 225 228 227 222 218 216 218 220 225 228 231 230 232 236 239 241 244 244 245 248 251 254 258 262 265 268 269 271
316 309 278 282 272 243 240 235 241 234 233 235 237 236 233 232 224 221 222 221 219 217 216 216 220 226 229 233 240 243 245 247 250 252 253 254 256 259 261 265 268 269 271
323 314 278 276 270 250 245 240 241 245 241 235 237 244 247 234 224 220 219 216 214 214 212 211 212 217 225 230 238 246 248 251 255 258 260 261 260 261 263 265 268 269 271
335 305 266 253 257 253 252 246 241 245 243 218 212 207 235 256 236 224 217 213 213 208 212 215 208 208 212 217 233 244 253 258 260 263 267 268 267 266 267 269 270 271 272
330 315 286 263 257 242 248 246 235 233 242 233 216 207 202 225 250 239 225 219 215 211 211 209 206 208 209 213 226 244 253 258 261 264 267 272 271 270 270 270 271 272 274
321 309 295 277 263 256 256 251 242 236 236 239 234 227 230 198 211 248 244 232 227 219 214 213 210 210 212 219 232 242 250 256 262 265 268 270 273 274 274 275 274 273 274
316 313 300 276 260 257 256 253 250 240 237 237 235 227 231 261 235 228 246 238 242 228 226 219 215 210 220 230 240 248 250 254 260 264 268 270 272 274 274 274 276 278 276
308 318 305 289 271 262 257 252 242 240 242 239 237 232 216 212 219 232 240 239 249 245 233 221 220 220 227 239 247 254 253 256 259 263 268 271 273 273 274 275 277 278 280
301 303 297 287 276 270 268 257 240 240 240 239 237 243 235 230 228 245 241 251 262 268 248 233 222 225 239 248 254 253 253 256 258 263 268 271 275 276 275 277 278 279 279
287 290 289 289 285 280 276 264 247 243 241 240 242 240 243 239 229 236 232 241 266 273 258 251 244 230 253 266 266 259 259 261 262 265 267 271 276 277 277 276 277 277 278
290 297 292 287 285 275 267 258 249 243 236 236 239 239 241 249 235 233 230 221 227 251 254 245 240 240 269 268 265 262 268 269 270 268 268 270 273 275 276 276 276 275 276
299 298 299 289 282 278 270 258 262 250 233 237 233 233 245 251 248 233 230 244 239 241 253 250 255 274 277 281 275 272 268 271 266 266 267 269 272 272 273 274 276 276 276
303 294 295 291 289 290 285 270 262 257 248 247 243 236 244 241 237 244 238 236 239 243 259 275 278 279 278 283 288 284 277 270 269 267 268 271 271 270 270 272 273 274 275
308 306 306 300 296 293 285 274 270 263 245 242 241 233 238 235 231 234 238 246 245 244 252 269 280 274 267 264 278 280 280 279 274 270 271 271 271 271 270 271 272 274 275
323 324 320 309 300 290 284 276 263 263 250 247 244 238 237 226 231 233 238 246 254 260 256 261 274 280 278 268 282 291 278 267 281 279 273 270 270 272 271 271 273 274 275
327 327 322 311 302 297 293 289 278 265 255 250 249 245 243 233 231 232 238 242 253 259 257 257 268 276 279 275 272 286 293 284 285 290 281 278 275 273 272 272 273 276 276
335 331 333 329 322 312 305 298 283 268 265 267 260 249 247 246 245 245 246 243 247 252 258 259 264 271 274 284 278 281 291 297 284 267 272 275 274 265 266 269 271 274 275
341 342 341 333 331 326 323 314 308 282 277 278 279 277 261 248 253 259 260 258 254 251 251 256 262 259 270 274 275 281 290 295 290 269 287 282 269 270 269 264 273 275 274
345 347 343 340 334 326 332 336 337 324 300 291 286 292 296 281 271 252 259 263 260 258 255 251 255 258 263 262 266 275 278 284 282 283 290 280 269 269 273 275 281 282 278
341 340 338 336 333 335 343 340 338 334 318 308 296 287 283 280 277 276 263 262 260 258 261 253 249 254 255 255 254 263 271 284 286 270 262 274 281 279 284 276 272 280 285
336 335 332 338 339 335 341 337 332 326 317 309 301 293 287 285 293 295 281 275 279 280 292 283 279 277 272 269 268 269 273 281 289 282 253 262 280 292 283 269 274 282 287
322 330 334 333 330 327 332 335 331 317 310 311 314 311 306 302 298 300 284 273 276 282 288 297 293 289 274 267 270 256 257 269 285 282 250 267 278 301 295 268 267 279 287
Height
1506 1507 1509 1510 1511 1513 1514 1516 1517 1519 1520 1522 1523 1524 1525 1526 1528 1529 1530 1531 1532 1533 1534 1535 1536 1537 1537 1538 1538 1539 1539 1539 1539 1539 1539 1539 1538 1538 1537 1537 1536 1535 1535
1501 1502 1503 1505 1507 1508 1510 1511 1512 1514 1515 1517 1518 1519 1520 1522 1523 1524 1526 1527 1528 1529 1530 1531 1532 1533 1534 1534 1535 1535 1536 1536 1536 1536 1536 1536 1535 1535 1534 1534 1533 1532 1532
1497 1498 1498 1500 1501 1503 1505 1506 1507 1509 1510 1511 1513 1514 1516 1517 1518 1520 1521 1522 1523 1525 1526 1527 1528 1529 1529 1530 1531 1531 1532 1532 1532 1532 1532 1532 1532 1531 1531 1530 1529 1529 1528
1492 1493 1494 1495 1496 1498 1499 1501 1502 1503 1505 1506 1507 1509 1510 1511 1513 1514 1516 1517 1518 1520 1521 1522 1523 1524 1525 1526 1526 1527 1527 1528 1528 1528 1528 1528 1528 1527 1527 1526 1525 1525 1524
1488 1488 1489 1490 1491 1492 1494 1495 1496 1498 1499 1500 1502 1503 1504 1505 1507 1509 1510 1512 1513 1514 1515 1517 1518 1519 1520 1521 1521 1522 1522 1523 1523 1523 1523 1523 1523 1523 1522 1521 1521 1520 1519
1483 1483 1484 1485 1486 1487 1488 1489 1491 1492 1493 1495 1496 1497 1498 1500 1501 1502 1504 1506 1507 1509 1510 1511 1512 1513 1514 1515 1516 1516 1517 1517 1518 1518 1518 1518 1518 1517 1517 1516 1516 1515 1514
1478 1478 1479 1479 1480 1481 1482 1484 1485 1487 1488 1489 1490 1491 1492 1493 1494 1496 1498 1500 1501 1502 1504 1505 1506 1507 1508 1509 1510 1510 1511 1511 1512 1512 1512 1512 1512 1512 1511 1511 1510 1510 1509
1473 1474 1474 1474 1475 1476 1477 1478 1480 1481 1482 1484 1485 1485 1485 1487 1487 1489 1491 1493 1495 1496 1497 1499 1500 1501 1502 1502 1503 1504 1505 1505 1506 1506 1506 1506 1506 1506 1506 1505 1505 1504 1503
1468 1469 1469 1469 1470 1471 1471 1472 1474 1475 1476 1478 1480 1481 1481 1480 1481 1483 1485 1487 1488 1489 1490 1492 1493 1494 1495 1496 1497 1497 1498 1499 1499 1500 1499 1499 1499 1499 1499 1499 1498 1498 1497
1463 1463 1464 1464 1465 1465 1466 1467 1468 1470 1471 1472 1474 1475 1476 1476 1477 1477 1478 1480 1482 1482 1484 1485 1486 1487 1488 1489 1490 1490 1491 1492 1493 1493 1493 1493 1493 1493 1492 1492 1492 1491 1490
1459 1458 1459 1459 1459 1460 1461 1462 1463 1464 1466 1467 1468 1469 1470 1471 1471 1472 1472 1474 1476 1477 1478 1479 1480 1480 1481 1482 1483 1483 1484 1485 1485 1486 1486 1486 1486 1485 1485 1484 1484 1484 1483
1454 1454 1454 1454 1454 1455 1456 1456 1458 1459 1460 1462 1463 1464 1464 1465 1466 1467 1467 1468 1469 1470 1472 1472 1473 1474 1474 1475 1476 1477 1477 1478 1478 1478 1478 1478 1478 1478 1477 1477 1476 1476 1476
1449 1449 1449 1449 1450 1450 1451 1452 1453 1454 1455 1456 1457 1458 1459 1460 1461 1462 1463 1463 1463 1464 1465 1466 1467 1467 1468 1469 1469 1470 1470 1471 1471 1471 1471 1471 1470 1470 1470 1469 1469 1469 1468
1446 1445 1445 1445 1446 1446 1447 1447 1448 1449 1450 1451 1452 1453 1454 1455 1455 1456 1457 1458 1458 1458 1458 1459 1460 1461 1461 1462 1462 1463 1463 1463 1463 1464 1464 1463 1463 1463 1463 1462 1462 1461 1460
1443 1442 1442 1442 1442 1442 1443 1443 1443 1444 1445 1446 1447 1448 1449 1450 1450 1451 1452 1454 1455 1454 1452 1453 1454 1455 1455 1456 1456 1456 1456 1456 1456 1456 1456 1456 1456 1455 1455 1455 1454 1454 1453
1440 1439 1438 1438 1438 1438 1439 1439 1439 1440 1441 1441 1442 1442 1443 1445 1445 1446 1447 1448 1449 1450 1448 1447 1448 1449 1449 1449 1449 1449 1449 1449 1449 1449 1449 1449 1448 1448 1448 1447 1446 1446 1445
1438 1436 1436 1435 1435 1435 1435 1435 1435 1435 1436 1436 1437 1437 1438 1439 1440 1440 1441 1442 1443 1444 1442 1441 1442 1443 1443 1443 1442 1442 1442 1442 1441 1441 1441 1441 1441 1441 1440 1439 1438 1438 1437
1436 1434 1433 1433 1432 1432 1431 1431 1431 1431 1431 1431 1432 1432 1433 1434 1435 1436 1436 1437 1438 1438 1438 1436 1436 1436 1436 1436 1436 1435 1435 1434 1434 1434 1434 1433 1433 1433 1432 1432 1431 1430 1429
1434 1432 1431 1430 1429 1428 1428 1427 1427 1426 1426 1427 1427 1428 1428 1429 1429 1430 1431 1431 1432 1432 1432 1431 1430 1430 1430 1429 1429 1428 1428 1427 1426 1426 1426 1426 1426 1425 1425 1424 1423 1422 1421
1432 1430 1429 1427 1426 1426 1425 1424 1423 1422 1422 1422 1423 1423 1423 1423 1424 1425 1425 1426 1427 1427 1427 1426 1424 1424 1423 1423 1422 1421 1420 1419 1419 1419 1418 1418 1418 1418 1417 1417 1416 1414 1414
1430 1428 1427 1425 1424 1423 1422 1420 1420 1419 1418 1418 1418 1418 1418 1418 1419 1419 1420 1420 1421 1421 1421 1420 1418 1418 1417 1416 1416 1416 1414 1413 1412 1412 1411 1410 1410 1409 1409 1409 1408 1407 1406
1428 1426 1425 1423 1422 1420 1419 1418 1417 1415 1415 1414 1413 1413 1412 1413 1413 1414 1415 1416 1416 1416 1415 1414 1413 1412 1411 1411 1411 1411 1409 1408 1404 1405 1404 1403 1403 1401 1401 1401 1400 1400 1398
1427 1424 1423 1421 1419 1418 1417 1415 1414 1413 1411 1410 1409 1408 1407 1407 1408 1408 1409 1410 1410 1410 1410 1409 1407 1406 1405 1406 1406 1405 1404 1403 1400 1399 1399 1396 1396 1394 1394 1394 1394 1393 1391
1425 1423 1421 1419 1417 1416 1414 1412 1411 1409 1408 1407 1406 1404 1404 1403 1403 1403 1403 1403 1404 1404 1404 1403 1402 1401 1401 1401 1401 1400 1399 1397 1395 1395 1394 1391 1388 1387 1386 1386 1386 1385 1384
1423 1421 1419 1417 1415 1413 1411 1409 1408 1406 1404 1403 1402 1401 1400 1399 1399 1399 1399 1398 1397 1397 1397 1397 1397 1396 1396 1396 1396 1395 1393 1391 1388 1387 1388 1386 1383 1380 1379 1379 1379 1378 1377
1422 1420 1417 1416 1413 1411 1409 1407 1405 1403 1402 1400 1399 1398 1397 1396 1395 1395 1394 1393 1392 1391 1391 1390 1391 1391 1390 1390 1390 1389 1388 1386 1383 1381 1380 1381 1378 1377 1373 1371 1372 1372 1370